Tracking 30692 objects as of 16-Jun-2025
HD Live streaming from Space Station
objects crossing your sky now

STARLINK-6173

Track STARLINK-6173 now!
10-day predictions
STARLINK-6173 is classified as:


NORAD ID: 56385
Int'l Code: 2023-061M
Perigee: 565.2 km
Apogee: 567.3 km
Inclination: 43.0 °
Period: 95.8 minutes
Semi major axis: 6937 km
RCS: Unknown
Launch date: May 4, 2023
Source: United States (US)
Launch site: AIR FORCE EASTERN TEST RANGE (AFETR)
Your satellite tracking list
Your tracking list is empty




NASA's NSSDC Master Catalog

Two Line Element Set (TLE):
1 56385U 23061M   25166.56134804 -.00000928  00000-0 -53632-4 0  9994
2 56385  43.0034 208.7921 0001507 273.5565  86.5105 15.02527119116576
Source of the keplerian elements: AFSPC